User: anonymous   Login
Location: Newark
(44.2003°N, 3.2583°E)
Time: 00:53:06
(UTC+00:00)
Language:

deb Explorer IX - Orbit

View from above orbital plane
View from above orbital plane
View from above satellite
View from above satellite

Ground track
Ground track

The orbit data is extracted from the following two-line orbital elements,

1    85U 61004C   19285.80129187 -.00000255 +00000-0 -35035-4 0  9999
2    85 038.7722 208.5959 0390864 282.9901 072.7485 14.19880384895734
Epoch (UTC): 12 October 2019 19:13:51
Eccentricity: 0.0390864
inclination: 38.7722°
perigee height: 544 km
apogee height: 1107 km
right ascension of ascending node: 208.5959°
argument of perigee: 282.9901°
revolutions per day: 14.19880384
mean anomaly at epoch: 72.7485°
orbit number at epoch: 89573

The dashed part of the orbit path shows where the satellite is in the earth's shadow,  

DLR